[[{"header":{"parameterUnit":"m.s-1","parameterCategory":1,"la1":30.2992,"la2":30.254,"lo1":-89.0895,"lo2":-89.0443,"dy":0.0025,"dx":0.0025,"nx":19,"ny":19,"refTime":"2026-04-29T03:00:00:Z","depth":0,"parameterNumber":2,"parameterNumberName":"U-component_of_WINDS"},"data":[0,0,0,-1.5114,-1.5114,-1.5079,-1.5079,-1.5038,-1.5038,0,0,0,0,0,0,0,0,0,0,0,-1.5129,-1.5129,-1.5114,-1.5114,-1.5079,-1.5079,-1.5038,-1.5038,0,0,0,0,0,0,0,0,0,0,0,-1.5129,-1.5129,-1.5128,-1.5114,-1.5079,-1.5079,-1.5038,-1.5063,0,0,0,0,0,0,0,0,0,0,-1.5096,-1.5113,-1.5129,-1.5128,-1.5113,-1.5079,-1.5079,-1.5064,-1.5061,-1.5056,0,-1.5054,0,-1.5046,-1.5036,-1.5036,0,0,0,-1.511,-1.5115,-1.5103,-1.5128,-1.5113,-1.5079,-1.5094,-1.5062,-1.506,-1.5053,-1.5053,-1.5052,-1.5045,-1.5035,-1.5035,-1.502,-1.502,0,0,-1.5112,-1.5124,-1.5105,-1.5101,-1.5108,-1.5095,-1.5093,-1.5061,-1.5061,-1.5053,-1.5051,-1.5044,-1.5035,-1.5035,-1.502,-1.502,0,0,0,-1.512,-1.5126,-1.5113,-1.5103,-1.5096,-1.5094,-1.5091,-1.5063,-1.5058,-1.505,-1.5044,-1.5035,-1.5035,-1.502,-1.502,-1.5036,0,0,0,-1.5121,-1.513,-1.5114,-1.5121,-1.5097,-1.5079,-1.5094,-1.506,-1.5056,-1.5044,-1.5035,-1.5034,-1.502,-1.502,-1.5035,-1.5041,0,0,0,-1.513,-1.5131,-1.5127,-1.5122,-1.5108,-1.508,-1.5073,-1.5059,-1.5052,-1.5036,-1.5034,-1.502,-1.502,-1.5035,-1.504,-1.504,0,0,0,-1.5142,-1.5141,-1.5128,-1.5125,-1.5108,-1.509,-1.5073,-1.5059,-1.5046,-1.5035,-1.502,-1.502,-1.5034,-1.5039,-1.504,-1.5043,-1.5045,0,0,-1.5148,-1.5143,-1.514,-1.5127,-1.5115,-1.5094,-1.5084,-1.5061,-1.5048,-1.503,-1.5029,-1.5035,-1.504,-1.504,-1.5055,-1.5057,0,0,0,-1.5146,-1.5144,-1.5138,-1.5128,-1.5111,-1.5096,-1.5074,-1.5065,-1.5049,-1.5041,-1.5035,-1.5038,-1.5037,-1.5038,-1.504,-1.5039,-1.5021,-1.5021,-1.5021,-1.5171,-1.5156,-1.515,-1.513,-1.512,-1.5097,-1.5087,-1.5071,-1.5057,-1.5056,-1.5051,-1.5062,-1.5063,-1.5065,-1.5063,-1.5051,-1.5051,-1.5051,-1.5051,-1.5179,-1.5174,-1.5157,-1.5145,-1.5128,-1.5118,-1.5095,-1.5086,-1.5074,-1.5065,-1.5064,-1.5055,-1.5067,-1.5065,-1.5052,-1.5052,-1.5052,-1.5052,-1.5052,-1.5194,-1.5189,-1.5179,-1.5162,-1.515,-1.5129,-1.5118,-1.5103,-1.5088,-1.5087,-1.5079,-1.5079,-1.5076,-1.5085,-1.5085,-1.5085,-1.5085,-1.5085,-1.5085,-1.5213,-1.5201,-1.5194,-1.5177,-1.5168,-1.5154,-1.513,-1.5121,-1.5106,-1.5095,-1.5095,-1.5082,-1.5072,-1.5069,-1.5085,-1.5085,-1.5085,-1.5085,-1.5085,-1.5226,-1.5221,-1.521,-1.5201,-1.5179,-1.5168,-1.5149,-1.513,-1.512,-1.5115,-1.5101,-1.5097,-1.509,-1.5088,-1.5086,-1.5105,-1.5105,-1.5105,-1.5105,-1.5239,-1.5234,-1.5219,-1.5206,-1.5191,-1.5173,-1.516,-1.5142,-1.5122,-1.5114,-1.5109,-1.5105,-1.5104,-1.5098,-1.5096,-1.5094,-1.5114,-1.5114,-1.5114,-1.5246,-1.5239,-1.5231,-1.5213,-1.5194,-1.5178,-1.5165,-1.515,-1.5126,-1.5114,-1.5108,-1.5107,-1.5101,-1.5099,-1.5088,-1.5085,-1.5081,0,0]},{"header":{"parameterUnit":"m.s-1","parameterCategory":1,"la1":30.2992,"la2":30.254,"lo1":-89.0895,"lo2":-89.0443,"dy":0.0025,"dx":0.0025,"nx":19,"ny":19,"refTime":"2026-04-29T03:00:00:Z","depth":0,"parameterNumber":3,"parameterNumberName":"V-component_of_WINDS"},"data":[0,0,0,5.2905,5.2906,5.2917,5.2917,5.2945,5.2945,0,0,0,0,0,0,0,0,0,0,0,5.291,5.291,5.2905,5.2906,5.2917,5.2917,5.2945,5.2945,0,0,0,0,0,0,0,0,0,0,0,5.291,5.291,5.2911,5.2906,5.2917,5.2917,5.2944,5.2931,0,0,0,0,0,0,0,0,0,0,5.2918,5.293,5.291,5.2911,5.2906,5.2917,5.2917,5.2931,5.2932,5.2945,0,5.2958,0,5.2952,5.2948,5.2948,0,0,0,5.29,5.2928,5.2924,5.2911,5.2906,5.2917,5.291,5.2931,5.2933,5.2947,5.2959,5.2959,5.2953,5.2948,5.2948,5.3041,5.3042,0,0,5.29,5.2916,5.2923,5.2926,5.2925,5.291,5.2911,5.2932,5.2946,5.2959,5.296,5.2953,5.2948,5.2948,5.304,5.3041,0,0,0,5.2902,5.2916,5.2911,5.2925,5.2926,5.2911,5.2911,5.2945,5.2942,5.296,5.2953,5.2948,5.2949,5.3039,5.3041,5.3091,0,0,0,5.2901,5.2917,5.2911,5.2921,5.2926,5.2936,5.2924,5.294,5.2942,5.2953,5.2948,5.2949,5.3039,5.304,5.3087,5.3111,0,0,0,5.2907,5.2918,5.2922,5.2922,5.2928,5.2935,5.2933,5.294,5.2939,5.2948,5.2949,5.3038,5.304,5.3085,5.3107,5.314,0,0,0,5.2917,5.2967,5.2923,5.2976,5.2928,5.2966,5.2933,5.296,5.2974,5.2949,5.3039,5.304,5.3084,5.3104,5.3137,5.3171,5.3186,0,0,5.2989,5.2976,5.3005,5.2967,5.3017,5.2963,5.302,5.3018,5.3004,5.3029,5.3032,5.3088,5.3106,5.314,5.3269,5.3282,0,0,0,5.3034,5.3055,5.3065,5.3079,5.3078,5.3079,5.3066,5.3065,5.3086,5.302,5.3109,5.312,5.3138,5.3153,5.3164,5.3179,5.3048,5.3048,5.3048,5.3158,5.3137,5.3185,5.3166,5.318,5.3166,5.3175,5.3172,5.3147,5.3169,5.3176,5.3257,5.3275,5.3283,5.3299,5.3192,5.3192,5.3193,5.3193,5.326,5.3287,5.3253,5.3287,5.3265,5.3294,5.3283,5.3264,5.3287,5.325,5.3265,5.3225,5.3297,5.331,5.3196,5.3196,5.3195,5.3195,5.3195,5.3339,5.3348,5.3346,5.3364,5.3381,5.336,5.3384,5.3363,5.3344,5.3359,5.3364,5.3363,5.3359,5.3363,5.3363,5.3364,5.3364,5.3364,5.3364,5.3421,5.3417,5.344,5.3443,5.3449,5.3455,5.3442,5.3447,5.3448,5.3431,5.3431,5.3404,5.3309,5.3285,5.3369,5.3368,5.3367,5.3367,5.3367,5.3532,5.3503,5.3538,5.3544,5.3546,5.3564,5.3537,5.3551,5.3552,5.3565,5.3535,5.3468,5.3453,5.3444,5.3424,5.3539,5.3539,5.3539,5.3539,5.3598,5.3588,5.3619,5.363,5.3639,5.3618,5.3658,5.3649,5.3635,5.3634,5.3615,5.3587,5.3579,5.3569,5.3558,5.3538,5.368,5.368,5.368,5.3664,5.3655,5.3692,5.3677,5.3678,5.3679,5.3715,5.373,5.3708,5.3686,5.3634,5.3628,5.3582,5.3569,5.3544,5.3527,5.3492,0,0]}]]